Weather History for PHOG - March, 2013

Change the Weather History Date:

Thursday, March 28, 2013

  Actual Average Record
Temperature  
Mean Temperature 74 °F 74 °F  
Max Temperature 81 °F 82 °F 88 °F (1978)
Min Temperature 66 °F 65 °F 58 °F (1965)
Degree Days  
Heating Degree Days 0 0  
Month to date heating degree days 0 0  
Since 1 July heating degree days 0 0  
Cooling Degree Days 9 8  
Month to date cooling degree days 214 216  
Year to date cooling degree days 647 625  
Growing Degree Days 24 (Base 50)    
Moisture  
Dew Point 66 °F    
Average Humidity 78    
Maximum Humidity 93    
Minimum Humidity 62    
Precipitation  
Precipitation T in 0.08 in 1.60 in (1963)
Month to date precipitation 0.92 2.20  
Year to date precipitation 5.87 6.96  
Snow  
Snow 0.00 in - - ()
Month to date snowfall 0.0  
Since 1 July snowfall 0.0  
Snow Depth 0.00 in    
Sea Level Pressure  
Sea Level Pressure 30.03 in    
Wind  
Wind Speed 13 mph (NE)    
Max Wind Speed 26 mph    
Max Gust Speed 31 mph    
Visibility 10 miles    
Events Rain    
T = Trace of Precipitation, MM = Missing Value Source: NWS Daily Summary

Daily Weather History Graph

Daily Weather History Graph

Search for Another Location

Airport or City:

Trip Planner

Search our weather history database for the weather conditions in past years. The results will help you decide how hot, cold, wet, or windy it might be!

Date:

Astronomy

Mar. 28, 2013 Rise Set
Actual Time 6:22 AM HST 6:39 PM HST
Civil Twilight 5:59 AM HST 7:01 PM HST
Nautical Twilight 5:34 AM HST 7:27 PM HST
Astronomical Twilight 5:08 AM HST 7:53 PM HST
Moon 8:23 PM HST 7:13 AM HST
Length of Visible Light 13h 01m
Length of Day
12h 17m
Full, 97% of the Moon is Illuminated
Mar 28
Full
Apr 2
Last Quarter
Apr 9
New
Apr 18
First Quarter
Apr 25
Full

Hourly Weather History & Observations

Time (HST) Temp. Heat Index Dew Point Humidity Pressure Visibility Wind Dir Wind Speed Gust Speed Precip Events Conditions
12:54 AM 71.1 °F - 66.0 °F 84% 30.04 in 10.0 mi NNE 13.8 mph - N/A   Clear
1:54 AM 69.1 °F - 64.9 °F 87% 30.02 in 10.0 mi NE 8.1 mph - N/A   Clear
2:54 AM 69.1 °F - 66.0 °F 90% 30.01 in 10.0 mi Calm Calm - N/A   Partly Cloudy
3:54 AM 69.1 °F - 66.0 °F 90% 30.01 in 10.0 mi North 3.5 mph - N/A   Clear
4:35 AM 68.0 °F - 64.4 °F 88% 30.00 in 10.0 mi ENE 6.9 mph - N/A   Mostly Cloudy
4:54 AM 68.0 °F - 66.9 °F 96% 30.02 in 10.0 mi ENE 10.4 mph - 0.00 in Rain Light Rain
5:54 AM 66.9 °F - 64.9 °F 93% 30.04 in 10.0 mi NE 4.6 mph - 0.00 in   Partly Cloudy
6:49 AM 69.8 °F - 66.2 °F 88% 30.03 in 10.0 mi North 5.8 mph - N/A   Mostly Cloudy
6:54 AM 70.0 °F - 68.0 °F 93% 30.05 in 10.0 mi North 6.9 mph - N/A   Scattered Clouds
7:29 AM 73.4 °F - 66.2 °F 78% 30.04 in 10.0 mi NNE 6.9 mph - N/A   Scattered Clouds
7:54 AM 73.0 °F - 66.9 °F 81% 30.06 in 10.0 mi NE 12.7 mph - N/A   Scattered Clouds
8:54 AM 75.0 °F - 66.9 °F 76% 30.08 in 10.0 mi NE 10.4 mph - 0.00 in   Scattered Clouds
9:54 AM 78.1 °F - 66.0 °F 66% 30.08 in 10.0 mi NE 13.8 mph - N/A   Scattered Clouds
10:54 AM 79.0 °F - 66.0 °F 64% 30.07 in 10.0 mi NE 18.4 mph - N/A   Partly Cloudy
11:54 AM 80.1 °F 82.3 °F 66.9 °F 64% 30.06 in 10.0 mi NE 23.0 mph - N/A   Partly Cloudy
12:54 PM 80.1 °F 82.3 °F 66.9 °F 64% 30.03 in 10.0 mi NE 21.9 mph - N/A   Scattered Clouds
1:54 PM 79.0 °F - 66.9 °F 66% 30.01 in 10.0 mi NE 20.7 mph - N/A   Scattered Clouds
2:54 PM 80.1 °F 82.3 °F 66.9 °F 64% 29.99 in 10.0 mi NE 24.2 mph 31.1 mph N/A   Partly Cloudy
3:54 PM 79.0 °F - 66.0 °F 64% 29.97 in 10.0 mi NE 19.6 mph 29.9 mph N/A   Scattered Clouds
4:54 PM 75.0 °F - 64.0 °F 69% 29.98 in 10.0 mi ENE 15.0 mph 24.2 mph N/A   Scattered Clouds
5:54 PM 73.0 °F - 66.0 °F 79% 30.00 in 10.0 mi ENE 13.8 mph - N/A   Scattered Clouds
6:54 PM 73.0 °F - 66.0 °F 79% 30.01 in 10.0 mi NE 15.0 mph 21.9 mph N/A   Scattered Clouds
7:54 PM 71.1 °F - 64.9 °F 81% 30.03 in 10.0 mi NE 11.5 mph - N/A   Scattered Clouds
8:54 PM 71.1 °F - 64.9 °F 81% 30.05 in 10.0 mi NE 12.7 mph - N/A   Scattered Clouds
9:54 PM 70.0 °F - 64.9 °F 84% 30.06 in 10.0 mi ENE 6.9 mph - N/A   Scattered Clouds
10:54 PM 70.0 °F - 66.0 °F 87% 30.08 in 10.0 mi ENE 9.2 mph - N/A   Partly Cloudy
11:54 PM 70.0 °F - 66.0 °F 87% 30.07 in 10.0 mi NE 12.7 mph - N/A   Clear